Temp
69 71 70 71 58 51 44 53 59 65 67 74 79 75 76 82 77 66 77 82 78 78 76 78 79 79 79 79 79 79 78 78 78 78 78 78 78 78 78 78 78 79 79 79 79 79 79 78 78
71 76 70 63 51 45 48 55 63 66 73 76 77 79 75 76 82 76 77 79 80 78 76 77 79 79 79 79 78 78 78 78 78 78 78 78 78 78 78 78 78 79 79 79 79 79 79 78 78
74 75 63 57 51 48 53 59 61 70 75 74 73 82 79 80 82 80 81 80 80 77 76 77 79 79 79 79 78 78 78 78 78 78 78 78 77 78 77 78 78 79 79 79 79 79 78 78 78
73 67 62 52 53 58 60 62 67 71 76 76 76 75 83 87 83 84 82 80 78 76 77 78 78 78 79 79 78 78 78 78 78 78 78 78 77 77 77 77 78 79 79 80 79 79 78 78 77
72 62 51 47 54 61 66 67 70 69 70 74 75 75 77 85 85 82 81 82 78 75 76 77 78 78 79 79 78 78 78 77 77 78 77 78 77 77 76 77 78 78 79 79 79 78 78 77 77
62 62 48 49 59 64 67 68 68 69 72 75 75 74 76 82 81 81 83 81 80 76 75 76 78 78 78 79 78 77 77 77 77 77 77 77 77 77 77 77 77 78 78 78 78 77 77 76 76
59 57 52 51 57 61 68 72 70 69 70 73 78 73 78 81 81 81 79 78 77 76 75 75 75 77 78 78 78 77 77 76 76 76 76 76 76 76 76 76 77 77 77 77 77 77 76 76 75
65 56 53 56 58 58 69 69 70 71 72 81 81 71 71 77 80 80 76 73 72 72 73 72 73 74 73 74 78 77 77 76 76 76 76 76 76 76 76 76 76 77 77 77 77 76 76 75 75
67 52 49 56 59 61 68 63 73 78 74 77 79 78 81 81 80 76 72 69 69 72 69 70 71 71 71 71 75 77 78 77 77 76 76 75 71 72 73 74 76 77 77 77 76 76 75 75 75
58 47 54 63 65 64 68 67 71 73 73 74 76 80 83 83 81 78 74 70 70 71 69 71 71 71 71 75 71 71 72 72 71 71 71 69 67 67 71 73 76 77 76 76 76 76 75 75 68
58 51 61 66 68 69 68 70 75 71 69 73 73 76 80 79 78 81 84 76 74 74 74 72 71 71 71 74 71 71 72 69 69 69 68 67 67 67 69 66 69 68 74 69 72 71 69 68 67
55 61 64 66 70 67 66 71 70 71 72 79 80 79 79 78 75 73 78 77 76 73 74 73 72 71 71 74 72 72 72 70 69 70 68 66 65 64 64 66 65 65 66 66 66 66 67 67 67
55 60 64 66 66 67 70 68 69 71 78 81 82 80 77 77 77 73 77 75 77 74 74 74 73 72 73 73 73 72 71 71 71 69 68 68 66 64 64 65 64 64 64 64 64 65 66 66 67
56 57 60 62 63 64 65 67 69 73 76 78 78 78 76 76 79 76 76 75 74 76 75 75 74 74 74 74 73 73 71 71 69 69 69 69 67 64 64 62 64 63 64 65 64 65 65 65 65
55 51 56 60 62 63 65 59 62 73 74 73 75 78 79 77 78 77 76 77 79 78 75 75 75 72 71 73 71 71 70 71 69 69 68 69 67 64 64 62 62 65 66 64 64 63 63 63 64
48 45 42 53 60 64 62 53 65 69 68 66 70 73 74 76 76 78 77 73 75 76 75 73 80 75 73 73 68 68 69 71 70 69 68 69 68 66 64 63 64 65 64 65 64 62 62 62 62
42 36 40 49 56 56 57 50 61 65 65 64 65 66 70 72 75 73 75 76 72 75 76 75 73 75 75 76 75 72 71 72 72 68 69 69 69 68 67 66 66 65 65 65 66 63 63 62 62
39 39 44 44 53 54 51 53 59 62 62 63 63 64 65 68 71 74 75 79 77 72 73 74 73 75 74 78 76 70 68 70 68 69 70 69 69 69 68 67 66 67 64 64 63 63 63 63 63
46 44 43 48 55 51 49 51 55 58 58 58 61 61 61 63 69 72 74 74 75 74 71 72 71 71 72 70 72 72 73 73 70 70 71 71 69 70 68 68 67 67 66 67 66 63 62 61 62
47 43 41 48 53 51 48 50 55 55 57 58 59 60 61 62 66 70 72 73 71 71 71 68 70 72 72 75 77 77 79 71 76 73 70 71 71 70 69 68 67 68 67 65 64 64 61 61 62
43 41 42 42 49 51 47 47 49 54 56 59 58 61 61 61 61 65 68 69 67 68 71 71 70 72 73 75 73 66 69 69 68 69 69 69 71 71 70 69 69 67 68 67 64 64 66 61 63
40 49 48 46 41 33 47 33 47 49 51 54 58 57 56 57 58 59 63 64 66 70 73 69 69 72 74 76 73 74 77 77 72 72 69 70 71 71 71 70 69 68 68 66 66 65 63 65 63
45 50 46 45 39 34 39 32 39 50 49 50 52 54 54 54 56 57 59 62 64 67 71 70 69 72 74 75 76 75 69 72 65 67 68 67 68 70 70 70 69 68 68 66 66 65 66 65 63
52 44 41 38 34 25 36 36 36 40 44 48 51 53 55 55 56 58 60 61 62 64 65 69 65 69 71 71 74 75 75 68 66 65 67 66 67 69 69 69 69 69 67 67 67 67 66 63 62
44 34 24 23 24 26 38 34 38 47 51 51 50 52 54 55 54 55 56 59 60 60 63 66 68 68 69 71 72 72 74 71 70 66 67 66 66 67 68 69 68 67 67 67 67 66 64 63 62
39 36 24 19 23 28 39 28 37 49 51 51 53 52 53 53 55 55 57 58 58 60 61 62 68 69 68 70 72 73 74 71 67 67 66 68 68 68 69 69 69 68 67 66 67 65 64 63 62
37 32 38 29 29 24 30 38 45 50 49 51 50 52 50 51 52 54 56 57 58 59 62 61 65 72 71 70 73 72 69 66 66 67 67 67 67 69 69 69 68 67 67 67 65 64 65 63 61
40 43 28 25 22 21 28 30 34 44 46 47 46 46 48 50 52 54 55 56 58 60 61 62 66 71 73 71 70 69 70 69 66 66 67 67 67 69 68 68 67 67 67 67 64 62 62 62 60
35 32 31 29 25 18 22 29 40 42 44 43 44 46 46 49 53 53 54 56 58 60 60 63 65 69 70 65 66 64 64 65 66 67 68 68 68 68 69 69 67 67 67 67 63 62 62 62 60
40 36 33 23 24 27 25 30 48 44 45 44 44 48 48 51 53 54 54 56 57 59 62 63 65 63 70 69 65 64 65 66 67 67 68 67 68 69 69 67 68 67 68 66 64 62 63 61 60
MSLP
1009.04 1008.82 1009.04 1009.27 1010.76 1011.02 1010.80 1009.61 1008.11 1006.91 1005.68 1004.34 1003.42 1003.05 1002.62 1001.73 1001.60 1002.53 1001.28 1001.89 1002.77 1004.00 1004.95 1005.37 1005.69 1006.32 1006.87 1007.13 1007.35 1007.68 1008.10 1008.55 1009.01 1009.39 1009.83 1010.22 1010.58 1010.96 1011.31 1011.56 1011.75 1011.91 1012.21 1012.44 1012.64 1012.90 1012.99 1012.99 1013.06
1009.10 1008.80 1009.13 1009.83 1010.96 1010.94 1010.13 1008.82 1007.65 1006.52 1005.42 1003.83 1002.80 1001.41 1001.33 1000.83 1001.05 1001.93 1001.99 1001.88 1002.22 1003.30 1004.48 1004.87 1005.35 1006.01 1006.74 1007.00 1007.29 1007.65 1008.03 1008.35 1008.88 1009.36 1009.90 1010.27 1010.45 1010.71 1011.09 1011.43 1011.64 1011.88 1012.15 1012.37 1012.53 1012.86 1013.05 1013.18 1013.23
1008.92 1008.94 1009.63 1010.24 1010.59 1009.87 1009.16 1007.79 1007.09 1005.74 1004.67 1003.98 1002.93 1001.55 1000.73 1000.18 1000.37 1000.87 1001.02 1001.46 1002.81 1003.38 1004.14 1004.76 1005.11 1005.92 1006.62 1006.90 1007.11 1007.35 1007.63 1008.20 1008.58 1009.21 1009.74 1010.15 1010.40 1010.63 1010.85 1011.19 1011.42 1011.73 1012.02 1012.30 1012.48 1012.81 1013.01 1013.19 1013.34
1008.89 1009.43 1010.34 1010.34 1009.72 1008.92 1007.94 1007.23 1006.32 1005.38 1004.09 1003.66 1002.86 1001.95 1000.66 999.50 999.47 1000.14 1000.83 1001.88 1002.81 1003.76 1003.99 1004.59 1005.09 1005.87 1006.59 1006.81 1007.24 1007.32 1007.54 1007.98 1008.39 1008.93 1009.46 1009.81 1010.33 1010.64 1010.85 1011.06 1011.29 1011.57 1011.92 1012.22 1012.42 1012.74 1012.81 1012.99 1013.12
1008.90 1009.96 1010.45 1010.46 1008.81 1008.13 1007.12 1006.67 1006.10 1005.59 1004.76 1003.61 1002.98 1001.93 1000.82 999.82 999.69 1000.04 1000.79 1001.81 1002.63 1003.60 1003.69 1004.20 1004.85 1005.58 1006.37 1006.71 1007.27 1007.40 1007.39 1007.78 1008.26 1008.68 1009.21 1009.63 1009.93 1010.38 1010.80 1010.97 1011.32 1011.51 1011.86 1012.09 1012.43 1012.82 1012.93 1013.11 1013.15
1009.74 1010.05 1010.56 1010.16 1008.13 1007.48 1006.78 1006.08 1005.83 1005.38 1004.53 1003.53 1002.80 1001.83 1000.78 1000.39 1000.41 1000.74 1000.83 1001.47 1002.58 1003.11 1004.01 1003.98 1004.77 1005.49 1006.26 1006.68 1007.00 1007.37 1007.38 1007.55 1008.02 1008.54 1008.92 1009.29 1009.64 1010.17 1010.57 1010.86 1011.15 1011.37 1011.69 1012.00 1012.25 1012.68 1012.96 1013.02 1013.26
1009.84 1010.15 1009.85 1009.19 1008.06 1007.35 1006.44 1005.64 1005.75 1005.35 1004.87 1003.80 1003.07 1002.62 1001.49 1001.16 1001.39 1002.20 1002.63 1002.74 1003.42 1003.82 1004.13 1004.39 1004.89 1005.73 1006.38 1006.87 1006.89 1007.36 1007.62 1007.60 1007.84 1008.18 1008.63 1009.04 1009.33 1009.79 1010.25 1010.51 1010.91 1011.34 1011.58 1011.75 1012.09 1012.35 1012.75 1013.05 1013.25
1009.42 1010.02 1009.70 1008.67 1007.74 1007.27 1006.14 1005.76 1005.64 1005.36 1004.67 1004.02 1003.14 1003.52 1002.93 1002.00 1002.02 1002.66 1003.37 1003.57 1004.03 1004.44 1004.56 1004.70 1005.24 1005.70 1006.41 1006.95 1007.25 1007.27 1007.75 1007.99 1007.94 1008.09 1008.40 1008.79 1009.16 1009.56 1009.87 1010.18 1010.50 1011.03 1011.38 1011.62 1011.89 1012.10 1012.29 1012.74 1013.20
1009.09 1010.20 1009.55 1008.16 1007.53 1007.02 1005.87 1006.17 1005.54 1005.15 1004.94 1004.39 1003.95 1003.78 1003.34 1002.62 1002.42 1003.32 1003.86 1004.36 1004.83 1004.89 1004.82 1004.92 1005.36 1005.83 1006.24 1006.75 1007.10 1007.27 1007.63 1008.00 1008.24 1008.25 1008.31 1008.58 1009.04 1009.40 1009.75 1010.08 1010.21 1010.62 1010.99 1011.48 1011.72 1011.94 1012.07 1012.49 1012.76
1009.43 1009.79 1008.90 1007.79 1007.25 1006.83 1005.95 1006.30 1005.71 1005.37 1004.58 1004.46 1003.65 1003.31 1003.14 1002.83 1003.02 1003.98 1004.84 1004.90 1004.88 1004.92 1004.80 1004.79 1005.17 1005.52 1006.20 1006.46 1006.74 1007.07 1007.40 1007.86 1008.16 1008.30 1008.37 1008.53 1008.86 1009.32 1009.67 1010.01 1010.10 1010.39 1010.71 1011.11 1011.55 1011.68 1011.91 1012.22 1012.55
1009.17 1008.96 1008.43 1007.63 1007.28 1007.08 1006.11 1005.73 1006.03 1005.51 1004.45 1004.84 1004.41 1003.71 1003.31 1003.25 1003.32 1003.46 1004.01 1004.73 1005.30 1004.50 1004.82 1004.69 1004.91 1005.35 1005.99 1006.31 1006.51 1006.84 1007.06 1007.52 1007.85 1008.17 1008.42 1008.46 1008.89 1009.33 1009.60 1009.98 1009.99 1010.29 1010.61 1010.99 1011.46 1011.54 1011.71 1012.00 1012.32
1008.96 1008.49 1008.25 1007.99 1007.49 1007.14 1006.92 1006.07 1005.59 1005.45 1004.14 1004.87 1004.43 1003.80 1003.58 1003.31 1003.31 1003.45 1003.26 1003.44 1004.18 1004.78 1004.19 1004.76 1005.07 1005.41 1005.59 1005.96 1005.98 1006.27 1006.67 1007.01 1007.58 1007.66 1008.14 1008.56 1008.83 1009.22 1009.60 1009.81 1009.93 1010.16 1010.56 1010.94 1011.46 1011.52 1011.65 1011.82 1011.99
1009.18 1008.85 1008.50 1008.19 1007.89 1007.40 1007.08 1006.20 1006.24 1003.90 1003.84 1004.41 1004.22 1003.83 1003.72 1003.34 1003.22 1003.23 1003.01 1002.90 1003.38 1004.02 1004.56 1004.01 1004.45 1004.82 1005.40 1005.82 1005.81 1005.84 1005.96 1006.27 1006.54 1007.09 1007.57 1008.02 1008.49 1008.79 1009.29 1009.57 1009.79 1009.94 1010.33 1010.64 1011.27 1011.51 1011.62 1011.74 1011.77
1009.44 1009.21 1008.89 1008.48 1008.21 1007.65 1007.16 1006.23 1005.80 1003.70 1003.89 1003.74 1003.94 1003.71 1003.66 1003.57 1003.17 1002.85 1003.14 1002.93 1003.26 1003.45 1003.92 1004.70 1004.84 1004.61 1004.99 1005.33 1005.53 1005.54 1005.65 1005.81 1006.18 1006.64 1006.97 1007.54 1007.91 1008.32 1008.86 1009.40 1009.57 1009.69 1009.89 1010.19 1010.68 1011.14 1011.29 1011.35 1011.66
1009.71 1009.68 1009.18 1008.43 1007.69 1007.24 1006.85 1006.20 1005.11 1004.60 1004.32 1003.68 1003.49 1003.76 1003.46 1003.32 1003.09 1002.83 1002.67 1002.65 1002.42 1002.53 1003.09 1003.62 1003.80 1004.57 1004.69 1004.82 1005.10 1005.32 1005.62 1005.42 1005.84 1006.19 1006.55 1007.02 1007.37 1007.89 1008.52 1009.13 1009.33 1009.28 1009.47 1009.79 1010.36 1010.75 1011.10 1011.18 1011.45
1010.58 1010.68 1010.09 1008.65 1008.09 1007.14 1006.97 1005.20 1005.37 1005.12 1005.04 1004.67 1004.15 1003.72 1003.34 1003.70 1003.65 1002.81 1002.58 1002.77 1002.41 1002.27 1002.30 1002.82 1003.11 1003.44 1003.81 1004.20 1004.49 1005.04 1005.39 1005.36 1005.36 1005.72 1005.95 1006.62 1006.80 1007.31 1007.98 1008.68 1008.85 1008.77 1009.15 1009.71 1010.18 1010.51 1010.93 1010.87 1011.24
1011.52 1011.64 1010.68 1009.34 1007.98 1007.61 1007.24 1006.25 1006.18 1005.77 1005.82 1005.38 1004.99 1004.56 1004.23 1003.32 1002.71 1002.96 1002.98 1002.65 1002.83 1002.26 1002.14 1002.19 1002.43 1002.87 1003.06 1002.99 1003.60 1004.14 1004.70 1004.94 1004.77 1005.28 1005.47 1006.19 1006.48 1006.87 1007.42 1007.84 1008.21 1008.41 1009.02 1009.51 1009.83 1010.20 1010.39 1010.67 1011.07
1012.00 1011.72 1010.98 1010.26 1009.14 1008.34 1007.81 1007.43 1007.00 1006.51 1006.38 1006.05 1005.62 1005.04 1004.60 1004.18 1003.53 1003.09 1002.41 1001.81 1002.17 1002.40 1002.49 1002.09 1001.80 1001.91 1002.49 1003.10 1002.75 1003.66 1004.12 1004.28 1004.38 1004.58 1004.88 1005.30 1005.95 1006.24 1007.05 1007.17 1007.65 1008.01 1008.31 1009.30 1009.57 1009.82 1009.92 1010.11 1010.51
1011.59 1011.57 1011.17 1010.38 1009.57 1009.23 1008.61 1007.05 1006.83 1006.47 1006.33 1006.27 1005.83 1005.50 1005.08 1004.68 1003.69 1003.36 1002.97 1002.40 1001.71 1001.83 1002.35 1002.16 1001.63 1001.41 1001.80 1002.74 1003.13 1003.28 1003.43 1003.57 1003.95 1003.91 1004.06 1004.39 1005.03 1005.80 1006.43 1006.51 1006.99 1007.50 1007.54 1008.06 1009.07 1009.45 1009.72 1010.03 1010.37
1011.20 1011.25 1011.25 1010.74 1010.14 1009.76 1009.11 1007.32 1006.98 1006.65 1006.44 1006.22 1005.97 1005.94 1005.57 1004.77 1004.07 1003.59 1003.06 1002.41 1001.91 1001.35 1001.54 1001.57 1001.34 1000.86 1000.93 1001.31 1002.12 1001.57 1001.75 1002.37 1002.29 1002.88 1003.48 1003.97 1004.18 1004.84 1005.40 1005.91 1006.29 1006.81 1007.09 1007.46 1008.42 1009.01 1009.40 1009.61 1010.20
1010.74 1011.01 1011.25 1011.33 1010.64 1009.93 1009.20 1006.63 1006.78 1006.57 1006.24 1005.92 1006.01 1005.86 1005.56 1005.16 1004.93 1004.21 1003.54 1002.92 1002.24 1001.63 1001.08 1000.85 1000.95 1000.63 1000.19 1000.05 1001.05 1002.14 1001.91 1002.26 1002.70 1002.87 1002.94 1002.90 1003.70 1003.97 1004.42 1005.01 1005.62 1006.07 1006.39 1006.89 1007.59 1008.37 1008.76 1009.33 1009.77
1010.79 1011.04 1011.40 1011.60 1011.54 1011.62 1010.75 1008.05 1006.28 1006.34 1006.30 1006.16 1005.80 1005.76 1005.83 1005.59 1005.38 1004.78 1004.00 1003.07 1002.64 1001.90 1001.24 1000.50 1000.42 1000.19 999.65 999.45 1000.00 1001.04 1000.81 1001.22 1001.29 1001.17 1001.73 1002.18 1002.78 1003.15 1003.74 1004.31 1004.98 1005.45 1005.96 1006.30 1006.85 1007.67 1008.15 1008.56 1009.34
1011.06 1011.21 1011.72 1012.15 1012.37 1012.22 1011.62 1011.15 1006.13 1006.53 1006.51 1006.41 1006.38 1006.24 1006.14 1006.06 1005.42 1004.90 1004.37 1003.52 1002.56 1002.09 1001.12 1000.15 999.94 999.69 998.95 999.05 998.99 999.89 1000.44 1000.60 1000.79 1001.12 1001.85 1002.42 1002.47 1002.73 1003.41 1003.92 1004.63 1004.98 1005.57 1005.76 1006.46 1007.33 1007.83 1008.03 1008.76
1011.40 1012.09 1012.65 1012.99 1013.37 1012.97 1011.82 1011.14 1007.73 1007.13 1006.90 1006.75 1006.73 1006.58 1006.35 1006.06 1005.60 1004.90 1004.04 1003.43 1002.42 1001.54 1001.03 1000.20 999.49 998.82 998.47 998.64 998.61 998.81 999.35 1000.14 1000.84 1001.34 1001.86 1002.11 1002.42 1002.49 1002.99 1003.58 1004.20 1004.47 1005.06 1005.44 1006.08 1006.78 1007.45 1007.81 1008.13
1012.09 1013.19 1014.46 1014.52 1014.41 1013.62 1012.27 1011.70 1008.36 1007.46 1006.80 1006.68 1006.76 1006.56 1006.43 1006.03 1005.60 1005.04 1004.31 1003.14 1002.07 1001.12 1000.40 999.66 998.91 998.18 997.96 997.85 997.99 998.20 998.39 998.95 999.96 1000.53 1000.90 1001.51 1002.08 1002.35 1002.68 1003.11 1003.58 1004.04 1004.61 1005.19 1005.86 1006.62 1007.07 1007.50 1007.90
1012.52 1013.59 1015.27 1015.25 1015.01 1014.00 1012.56 1010.91 1008.33 1007.04 1006.66 1006.74 1006.97 1006.87 1006.54 1006.06 1005.21 1004.68 1004.04 1003.23 1002.10 1000.87 999.90 999.20 998.15 997.40 996.96 997.05 997.14 997.30 997.58 998.36 999.23 999.75 1000.12 1000.60 1001.01 1001.38 1001.98 1002.71 1003.05 1003.38 1004.27 1005.09 1005.69 1006.36 1006.82 1007.16 1007.71
1012.77 1013.66 1014.14 1015.02 1015.06 1014.39 1012.58 1010.07 1008.12 1006.95 1006.96 1006.80 1006.76 1006.63 1006.49 1006.07 1005.47 1004.31 1003.39 1002.74 1002.05 1000.62 999.56 998.74 997.51 996.13 995.96 996.00 996.38 996.33 997.00 997.83 998.61 998.98 999.45 999.88 1000.40 1000.89 1001.66 1002.18 1002.79 1003.15 1004.01 1004.89 1005.43 1006.08 1006.50 1006.98 1007.51
1012.68 1013.49 1014.57 1015.68 1015.78 1014.55 1012.15 1010.38 1008.29 1007.27 1007.05 1006.99 1006.94 1006.67 1006.09 1005.67 1005.00 1003.95 1002.92 1002.17 1001.25 1000.20 998.98 997.76 996.17 994.99 994.62 994.76 995.54 995.83 996.32 996.98 997.70 998.55 999.08 999.45 1000.11 1000.70 1001.41 1002.04 1002.64 1003.01 1003.93 1004.60 1005.24 1006.06 1006.43 1006.87 1007.42
1013.45 1013.86 1014.77 1015.57 1015.63 1014.78 1012.76 1009.53 1007.63 1007.34 1007.12 1007.21 1006.92 1006.57 1006.29 1005.57 1004.59 1003.48 1002.27 1001.21 1000.48 999.51 998.51 996.61 995.12 994.24 993.94 994.10 994.50 995.42 995.95 996.73 997.45 998.03 998.51 999.05 999.76 1000.40 1000.95 1001.67 1002.32 1003.04 1003.79 1004.53 1005.18 1005.88 1006.34 1006.80 1007.33
1012.99 1013.60 1014.21 1015.10 1015.05 1014.65 1013.29 1008.34 1007.70 1007.29 1007.04 1007.08 1006.86 1006.24 1005.87 1005.41 1004.40 1003.30 1002.24 1001.06 1000.39 998.57 996.82 995.76 994.21 993.73 993.32 993.54 993.70 994.63 995.39 996.27 996.97 997.55 998.15 998.86 999.42 999.97 1000.47 1001.39 1002.19 1002.89 1003.61 1004.36 1004.99 1005.78 1006.25 1006.69 1007.15
Wind_Speed
6 4 0 4 3 6 3 7 3 8 6 4 10 6 14 17 15 9 2 15 16 19 17 18 22 20 19 20 20 20 19 18 17 17 16 16 16 16 14 13 12 12 11 10 9 7 7 6 6
3 0 4 3 4 2 6 4 7 5 8 11 12 8 1 8 5 2 11 11 21 21 17 17 23 21 19 20 20 20 20 19 18 17 16 16 16 16 15 14 13 12 11 10 9 8 7 5 5
2 1 4 4 4 6 5 4 3 7 8 7 7 8 3 6 4 11 5 16 18 19 17 16 23 21 20 20 20 21 21 20 19 18 17 16 16 15 15 14 13 12 12 11 10 9 8 6 4
3 4 4 3 11 5 4 5 5 11 11 5 4 9 5 5 12 10 17 18 19 16 16 20 23 21 19 20 19 20 21 20 20 19 18 17 16 15 14 14 13 12 12 11 10 10 9 8 6
3 2 2 4 6 4 3 3 5 8 7 10 6 8 5 5 7 14 21 20 21 16 15 18 23 22 20 20 19 19 21 20 20 20 19 18 17 16 15 13 13 12 12 11 10 10 8 7 6
1 1 3 7 8 2 3 3 2 4 7 13 9 9 5 5 7 12 18 20 16 18 13 16 21 20 19 19 19 18 19 21 20 19 19 18 17 16 15 14 13 12 11 10 11 10 9 7 6
3 1 5 4 4 4 1 2 4 4 7 8 7 7 8 7 7 7 5 7 8 11 12 12 13 14 17 17 18 17 16 19 20 20 19 18 17 17 15 14 13 11 11 11 11 11 10 8 8
4 3 3 5 4 5 4 4 3 4 7 10 3 6 8 4 9 9 7 8 7 5 7 9 9 10 8 8 15 16 14 15 18 19 19 18 17 16 16 14 13 12 12 12 12 11 11 9 8
4 2 5 5 3 3 5 3 3 5 4 8 6 5 7 8 12 8 7 5 5 5 5 8 9 8 7 7 10 13 15 15 14 15 17 14 7 9 11 11 14 14 13 13 12 12 11 10 9
4 4 8 3 2 4 8 5 10 9 17 10 13 8 7 8 9 8 7 2 6 9 9 10 11 11 10 9 7 7 7 6 6 6 8 6 6 6 7 10 15 14 14 13 13 12 12 11 4
5 6 4 3 3 4 11 15 7 11 18 3 11 10 10 3 6 6 7 7 10 6 7 12 12 11 11 10 7 5 5 4 5 6 6 5 4 5 4 3 4 4 10 4 7 6 4 5 4
4 4 3 1 5 5 8 11 16 16 20 9 8 8 7 7 4 1 5 7 9 8 12 9 9 10 12 8 8 8 7 7 6 7 7 5 4 5 4 4 4 4 3 5 4 3 4 5 5
4 4 4 6 7 7 11 15 13 28 17 8 12 10 8 9 8 3 6 3 7 8 8 13 13 12 11 10 7 7 9 8 9 7 8 7 6 6 5 5 4 4 4 4 4 4 4 5 5
2 2 6 3 5 5 7 12 6 21 8 11 6 9 8 9 9 3 5 2 5 6 7 4 10 11 10 11 9 8 7 7 7 6 8 10 7 5 5 4 5 5 5 5 5 6 6 5 4
3 6 5 4 4 7 7 12 18 16 7 11 10 12 11 9 9 10 6 7 6 6 6 10 15 9 9 11 6 6 6 6 6 7 8 10 9 7 6 4 5 6 5 6 4 5 4 4 3
4 5 3 5 4 6 7 20 8 8 9 10 9 11 12 10 8 9 8 8 8 6 8 10 11 14 14 11 6 5 5 6 6 6 6 10 9 8 6 5 5 5 4 5 5 4 4 4 4
6 1 2 7 5 4 4 6 7 9 6 8 7 8 11 15 16 7 10 6 8 10 9 9 8 12 16 14 10 11 9 8 6 5 6 8 9 9 8 7 6 6 5 5 6 3 4 3 4
3 1 4 4 6 5 10 11 6 6 5 7 8 9 9 11 11 13 14 15 8 8 9 9 8 11 11 10 9 5 4 6 4 6 8 10 8 10 9 6 7 7 5 5 4 5 3 3 4
2 4 6 5 6 5 9 18 10 6 4 6 7 8 9 9 10 11 10 10 13 5 9 10 8 11 7 6 7 6 9 9 6 8 10 10 9 11 11 7 7 7 8 9 8 4 5 3 3
4 4 2 3 4 7 9 22 13 5 6 5 6 7 8 9 10 14 15 11 10 10 8 8 10 8 9 9 9 6 8 5 7 6 6 8 10 11 10 9 9 10 6 7 7 5 3 2 4
2 2 3 4 5 5 8 20 6 3 4 5 3 6 8 8 11 13 16 15 10 11 14 9 11 12 11 15 5 1 4 2 3 3 5 7 9 10 10 11 8 8 7 7 6 7 7 4 3
3 1 2 5 8 3 5 16 16 5 6 3 9 8 8 8 7 9 13 14 13 16 15 11 10 12 12 14 9 13 12 12 6 5 3 6 9 9 10 9 9 8 6 6 6 5 4 5 4
5 2 3 3 5 3 4 5 3 12 13 8 7 5 6 8 10 12 13 14 16 15 14 12 11 14 13 14 17 14 8 6 2 3 5 4 5 7 9 9 9 8 7 6 7 7 6 3 4
2 2 4 4 1 2 10 8 6 3 1 3 4 7 9 8 9 13 13 13 13 13 13 14 10 14 13 12 17 18 17 9 5 5 5 5 4 6 8 9 8 7 6 6 6 6 6 6 4
6 6 5 6 3 5 3 5 9 12 6 6 6 9 10 12 10 11 13 16 16 15 17 14 13 15 14 15 16 16 17 13 12 8 6 6 4 4 8 9 9 6 6 6 6 6 6 6 5
4 8 6 5 3 9 6 7 8 5 5 4 4 8 10 12 16 15 15 14 15 15 19 17 18 17 12 15 18 16 14 8 7 8 5 6 7 7 9 8 8 8 7 6 6 4 5 6 5
3 3 5 3 2 2 6 10 9 9 5 4 8 9 10 12 15 20 19 18 16 14 19 19 21 19 14 16 17 15 11 9 10 10 7 6 6 6 9 9 8 8 8 8 8 5 6 6 5
2 2 1 3 3 6 6 7 11 13 9 6 9 10 13 13 16 17 18 18 18 15 16 19 18 19 18 15 11 10 14 13 9 8 9 9 7 9 10 8 8 9 8 8 8 5 5 6 4
2 1 3 3 4 5 5 9 6 6 8 7 11 10 11 13 17 17 18 19 16 14 14 17 15 14 13 9 9 9 9 9 9 9 9 10 10 10 12 11 10 10 9 8 7 6 6 6 5
6 6 5 5 6 4 3 16 7 5 8 6 10 11 9 12 17 17 17 17 13 15 19 19 14 9 13 12 9 9 9 10 10 9 10 11 11 11 12 10 11 11 10 9 8 7 6 7 6
Wind_Direction
325 315 18 51 53 70 258 256 268 313 324 268 286 228 230 200 165 207 90 148 133 153 166 166 161 165 164 158 153 149 146 142 140 139 139 141 142 144 146 147 149 150 151 148 147 147 139 130 124
335 277 44 88 104 132 262 245 244 264 270 294 295 316 253 197 147 128 122 169 154 153 166 167 163 164 167 163 156 153 151 148 146 145 149 151 151 152 154 157 159 160 159 159 156 154 149 143 130
34 242 89 131 168 195 219 228 345 287 283 288 296 242 255 240 110 160 127 143 145 157 164 169 162 164 170 166 164 160 156 154 151 153 158 160 160 160 163 168 168 169 167 168 163 163 163 163 149
65 356 39 108 239 259 207 312 319 327 326 274 280 300 314 244 157 174 137 142 146 162 161 168 162 164 174 168 171 165 159 158 157 160 166 165 167 169 173 174 175 174 174 173 171 175 172 174 165
67 18 75 279 252 244 220 257 295 300 275 291 332 299 257 354 37 137 146 153 157 167 164 163 162 165 177 172 174 173 165 163 163 166 169 172 173 177 182 180 182 181 181 178 178 183 181 179 183
348 134 96 241 242 308 291 232 297 294 294 302 332 326 282 340 123 169 157 159 163 160 163 158 162 170 179 180 176 181 172 166 168 171 174 177 176 181 185 185 189 188 184 183 186 187 192 183 196
165 145 212 250 270 321 320 322 280 306 311 316 298 317 306 4 62 74 101 103 143 152 153 153 160 173 181 189 178 183 183 173 173 175 178 180 179 183 186 187 192 195 191 190 193 188 195 195 206
143 116 231 229 269 287 271 356 300 351 299 327 340 10 319 311 98 98 77 81 92 132 147 146 154 163 172 188 193 183 190 189 181 179 180 181 184 187 189 188 190 198 198 200 198 195 194 201 211
108 160 228 231 140 231 318 357 183 316 320 323 341 5 305 38 77 63 89 71 95 137 149 149 158 160 164 178 196 187 193 198 197 189 185 181 180 187 194 192 193 201 201 207 203 201 197 205 213
153 176 220 225 100 322 292 308 325 338 317 317 320 329 16 60 93 76 344 266 173 185 188 177 174 176 174 189 185 178 184 190 198 200 193 181 174 176 184 195 202 209 207 208 210 206 204 212 188
195 201 207 288 348 316 302 301 310 295 284 290 290 312 329 18 56 114 195 206 261 228 190 191 183 178 184 194 181 182 187 183 191 196 194 177 167 182 190 185 201 192 217 195 217 211 200 192 190
251 246 227 255 285 291 273 303 298 273 266 280 278 289 290 314 310 237 306 232 186 221 197 189 194 194 196 192 191 187 187 185 198 199 188 179 174 181 190 189 195 182 190 188 203 194 195 202 210
199 273 307 339 311 283 284 278 264 279 286 278 279 275 254 278 278 163 264 253 230 205 229 200 186 193 200 209 199 192 196 193 196 188 189 184 188 189 181 193 183 189 175 189 194 193 198 211 209
327 286 289 272 245 232 246 269 258 266 327 301 292 282 260 236 257 211 181 296 173 200 212 221 222 201 190 207 209 210 196 197 188 189 193 194 190 181 183 185 194 193 194 190 187 196 200 213 186
319 338 341 215 232 233 211 259 246 277 299 287 301 286 292 248 247 240 186 185 223 216 206 204 189 193 203 206 208 201 220 181 192 197 185 193 191 175 180 185 188 208 200 179 181 193 189 190 188
15 43 18 278 262 256 172 253 285 3 347 329 337 333 346 340 286 268 259 196 220 242 253 201 208 199 193 196 183 202 203 206 197 193 178 197 190 176 167 185 204 197 180 181 189 177 196 199 187
13 188 258 309 321 281 191 312 328 328 350 318 332 327 327 327 332 341 305 289 207 216 226 245 199 209 208 201 190 198 208 210 198 189 176 193 190 184 184 192 204 179 178 186 192 190 178 169 210
246 249 249 260 298 317 295 272 268 288 298 300 312 317 319 319 325 321 323 321 299 221 239 234 207 199 207 230 186 179 181 213 191 196 192 172 194 186 192 189 196 181 161 186 176 188 172 165 201
235 238 246 270 284 312 288 293 300 275 246 280 299 310 312 309 303 311 313 307 309 268 216 225 210 214 168 188 201 205 209 210 215 209 196 184 177 189 195 195 189 185 186 190 194 173 172 200 162
185 207 251 272 319 327 305 291 293 268 253 229 279 299 298 304 309 311 311 313 308 299 285 240 228 221 191 187 223 216 200 214 216 195 190 202 182 184 187 188 192 192 183 164 172 169 141 148 173
341 113 333 269 301 266 306 288 257 263 275 287 269 263 282 276 301 317 319 316 311 306 301 279 240 228 209 199 168 12 67 83 146 184 197 196 194 189 184 187 188 184 183 181 171 172 167 151 183
339 80 323 330 352 304 55 289 289 266 271 296 288 308 323 334 331 325 321 317 315 305 300 279 247 232 221 200 185 209 205 207 210 186 163 185 195 187 183 184 186 178 181 162 169 170 166 141 164
240 312 288 274 262 279 206 259 285 334 305 283 335 337 327 313 304 305 299 297 299 299 295 283 258 239 228 206 200 200 204 213 146 127 167 195 184 174 179 179 177 172 182 168 161 162 173 155 152
347 339 353 359 46 285 211 198 317 208 303 268 281 304 293 278 283 293 295 289 293 298 296 292 256 245 226 208 207 202 199 184 155 170 182 179 172 162 171 172 177 171 163 158 168 164 166 169 152
62 51 339 340 359 241 302 310 265 287 248 195 252 287 298 297 289 285 295 302 304 303 301 296 274 248 226 211 205 204 201 187 192 181 172 158 152 170 180 172 171 159 161 158 148 160 161 169 163
250 160 160 256 221 278 308 250 252 251 244 260 249 264 284 300 309 305 299 293 290 303 299 295 283 253 219 211 210 205 200 188 181 179 170 178 179 174 170 174 168 151 145 150 149 151 165 150 162
265 200 211 216 312 280 226 270 289 258 241 293 320 327 312 308 308 309 309 305 293 295 300 292 283 253 227 207 215 196 188 167 184 183 170 170 165 162 164 165 164 145 146 160 153 157 157 156 161
162 210 332 12 263 248 257 259 250 273 288 298 301 302 304 305 309 309 306 299 285 286 297 292 280 244 228 201 199 196 194 188 166 154 167 167 160 158 157 156 153 136 151 150 145 142 142 147 151
354 280 81 128 169 212 292 256 217 248 268 266 277 290 290 302 313 307 304 294 278 294 294 304 295 244 230 194 181 170 165 161 156 169 173 173 161 165 161 158 148 147 148 145 138 145 149 150 154
170 206 150 131 267 234 235 268 271 268 254 261 263 275 281 301 314 312 314 313 290 306 321 307 298 241 226 206 171 173 154 156 161 170 174 161 167 166 155 151 149 151 152 150 146 154 159 158 167